Location: Chervonnoye
(48.6000°N, 34.4000°E)
Time: 08:12:15
(UTC+00:00)

VELOX 1 - Visible Passes

Search period start: 30 November 2022 00:00
Search period end: 10 December 2022 00:00
Orbit: 622 x 637 km, 98.4° (Epoch: 29 November)

Date Brightness Start Highest point End Pass type
(mag) Time Alt. Az. Time Alt. Az. Time Alt. Az.
30 Nov ? 02:04:38 10° SE 02:08:44 43° ENE 02:08:44 43° ENE visible
30 Nov ? 03:41:46 10° SW 03:45:14 23° W 03:46:06 21° WNW visible
30 Nov ? 15:26:27 17° NNE 15:29:34 46° E 15:33:45 10° S visible
30 Nov ? 17:03:49 17° NNW 17:05:33 22° WNW 17:08:53 10° WSW visible
01 Dec ? 02:24:36 10° SSE 02:28:58 67° ENE 02:29:04 67° ENE visible
01 Dec ? 04:03:11 10° SW 04:05:40 15° W 04:06:26 14° WNW visible
01 Dec ? 15:47:00 21° NNE 15:49:50 74° ESE 15:54:10 10° S visible
01 Dec ? 17:24:22 14° NW 17:25:33 15° WNW 17:28:04 10° W visible
02 Dec ? 01:11:02 10° E 01:12:03 13° E 01:12:03 13° E visible
02 Dec ? 02:44:46 10° S 02:49:10 78° WSW 02:49:24 75° WNW visible
02 Dec ? 14:31:03 10° ENE 14:33:18 14° E 14:35:31 10° ESE visible
02 Dec ? 16:07:32 24° N 16:10:03 71° WNW 16:14:22 10° SSW visible
02 Dec ? 17:44:54 10° NW 17:45:30 10° NW 17:46:14 10° WNW visible
03 Dec ? 01:30:10 10° ESE 01:32:22 19° E 01:32:22 19° E visible
03 Dec ? 03:05:10 10° S 03:09:25 49° W 03:09:44 48° W visible
03 Dec ? 14:50:41 11° NE 14:53:43 21° E 14:57:02 10° SE visible
03 Dec ? 16:28:03 25° N 16:30:12 45° WNW 16:34:20 10° SW visible
04 Dec ? 01:49:39 10° SE 01:52:42 29° E 01:52:42 29° E visible
04 Dec ? 03:25:48 10° SSW 03:29:44 32° W 03:30:04 31° W visible
04 Dec ? 15:11:11 16° NE 15:14:05 32° E 15:17:59 10° SSE visible
04 Dec ? 16:48:34 22° NNW 16:50:17 30° WNW 16:54:04 10° SW visible
05 Dec ? 02:09:25 10° SE 02:13:02 44° E 02:13:02 44° E visible
05 Dec ? 03:46:47 10° SW 03:50:06 21° W 03:50:23 21° W visible
05 Dec ? 15:31:41 21° NNE 15:34:23 50° E 15:38:36 10° S visible
05 Dec ? 17:09:03 18° NW 17:10:19 21° WNW 17:13:32 10° WSW visible
06 Dec ? 02:29:24 10° SSE 02:33:22 67° ESE 02:33:22 67° ESE visible
06 Dec ? 04:08:18 10° WSW 04:10:31 14° W 04:10:44 14° W visible
06 Dec ? 15:52:11 26° NNE 15:54:38 80° ESE 15:58:58 10° SSW visible
06 Dec ? 17:29:33 14° NW 17:30:18 14° WNW 17:32:35 10° W visible
07 Dec ? 01:15:36 10° E 01:16:21 12° E 01:16:21 12° E visible
07 Dec ? 02:49:34 10° S 02:53:42 70° SW 02:53:42 70° SW visible
07 Dec ? 14:35:36 10° NE 14:38:06 15° E 14:40:36 10° SE visible
07 Dec ? 16:12:39 28° N 16:14:48 65° WNW 16:19:06 10° SSW visible
08 Dec ? 01:34:47 10° ESE 01:36:41 19° E 01:36:41 19° E visible
08 Dec ? 03:10:00 10° S 03:14:02 45° WSW 03:14:02 45° WSW visible
08 Dec ? 14:55:45 13° NE 14:58:30 23° E 15:01:57 10° SSE visible
08 Dec ? 16:33:07 27° NNW 16:34:56 42° WNW 16:39:00 10° SW visible
09 Dec ? 01:54:19 10° SE 01:57:01 28° E 01:57:01 28° E visible
09 Dec ? 03:30:40 10° SSW 03:34:22 29° W 03:34:22 29° W visible
09 Dec ? 15:16:13 18° NE 15:18:50 35° E 15:22:49 10° SSE visible
09 Dec ? 16:53:35 23° NNW 16:54:59 28° WNW 16:58:41 10° WSW visible
